Location: Austin
(30.3000°N, 97.7500°W)
Time: 02:06:53
(UTC-05:00)

VEP-3 - Pass Details

Date: 15 May 2024
Orbit: 1046 x 33699 km, 24.4° (Epoch: 19 May)

Event Time Altitude Azimuth Distance (km) Brightness Sun altitude
Rises 21:07:51 0° 281° (WNW) 14,170 10.0 -10.4°
Reaches altitude 10° 21:24:54 10° 276° (W) 8,663 8.4 -13.5°
Maximum altitude 21:42:17 37° 214° (SW) 2,456 4.5 -16.7°
Enters shadow 21:46:35 19° 157° (SSE) 2,572 4.2 -17.4°
